�N����,����,����,����,����,�C��,���x,�~����,�S�V����,�ő�u�ԕ���,,,,,
,,,,,,,,,����,����,����,�N��,,
yyyy/mm/dd,hh:mm:ss,(16),16����,m/s,��,%,mm,KW/�u,(16),16����,m/s,Time,,
2020/4/1,1:00:00,8,��,5.5,6.1,89.3,0,0,8,��,10.1,41,,
2020/4/1,2:00:00,8,��,3.3,4.9,93.3,0,0,7,��쓌,8.7,18,,
2020/4/1,3:00:00,9,��쐼,5.1,6.4,91.7,0,0,10,�쐼,10.2,45,,
2020/4/1,4:00:00,9,��쐼,3.6,6,90.2,0,0,9,��쐼,7.9,1,,
2020/4/1,5:00:00,9,��쐼,4.3,7.1,86.1,0,0,9,��쐼,10,16,,
2020/4/1,6:00:00,8,��,5.2,7.2,86.9,0,0.02,8,��,11,19,,
2020/4/1,7:00:00,9,��쐼,3.8,6.4,90,0,0.07,8,��,9.6,11,,
2020/4/1,8:00:00,10,�쐼,1.5,5.6,93.8,0,0.12,10,�쐼,7.1,15,,
2020/4/1,9:00:00,11,���쐼,2.3,6.8,90.8,0,0.34,11,���쐼,4.5,58,,
2020/4/1,10:00:00,9,��쐼,4,7.8,77.3,0.5,0.66,8,��,8.4,36,,
2020/4/1,11:00:00,8,��,4.3,6.5,84,0,0.64,9,��쐼,8.5,12,,
2020/4/1,12:00:00,8,��,2.9,6.7,90.6,0,0.27,8,��,6.8,19,,
2020/4/1,13:00:00,8,��,4.6,6.9,95.2,0,0.14,8,��,8,44,,
2020/4/1,14:00:00,9,��쐼,3,6.9,95.6,0,0.19,8,��,8,46,,
2020/4/1,15:00:00,6,�쓌,3.5,7,93.6,0,0.26,7,��쓌,7.7,45,,
2020/4/1,16:00:00,6,�쓌,2.3,5,97.3,0,0.16,6,�쓌,7.5,1,,
2020/4/1,17:00:00,7,��쓌,1.9,4.9,99,0,0.05,7,��쓌,3.9,2,,
2020/4/1,18:00:00,8,��,2.3,5.4,99.6,0.5,0.01,9,��쐼,4.4,59,,
2020/4/1,19:00:00,12,��,0.3,4.7,99.8,1,0,9,��쐼,3.7,0,,
2020/4/1,20:00:00,1,�k�k��,1.4,4.9,100,1.5,0,8,��,2.1,5,,
2020/4/1,21:00:00,16,�k,1,4.1,100,1.5,0,2,�k��,1.8,5,,
2020/4/1,22:00:00,13,���k��,0.9,3.2,100,0.5,0,1,�k�k��,2.5,16,,
2020/4/1,23:00:00,14,�k��,0.3,2.4,100,1,0,1,�k�k��,19.5,50,,
2020/4/1,0:00:00,1,�k�k��,1.8,4.7,100,0.5,0,2,�k��,3.2,45,,
2020/4/2,1:00:00,1,�k�k��,2.5,4.8,100,2,0,1,�k�k��,4.3,7,,
2020/4/2,2:00:00,14,�k��,2.2,4,100,1.5,0,14,�k��,3.8,51,,
2020/4/2,3:00:00,15,�k�k��,2.7,3.3,100,1.5,0,15,�k�k��,5.1,55,,
2020/4/2,4:00:00,15,�k�k��,3.4,3.1,100,1,0,15,�k�k��,6.2,57,,
2020/4/2,5:00:00,15,�k�k��,4.1,2.7,99.6,2,0,16,�k,9.2,54,,
2020/4/2,6:00:00,15,�k�k��,4.1,2.4,98.8,1.5,0.01,15,�k�k��,9,16,,
2020/4/2,7:00:00,15,�k�k��,4.4,2.2,97.8,1,0.03,15,�k�k��,9.7,39,,
2020/4/2,8:00:00,14,�k��,4.5,2,95.2,2,0.07,14,�k��,9.5,44,,
2020/4/2,9:00:00,14,�k��,4.8,1.9,96.2,1,0.11,15,�k�k��,8.9,27,,
2020/4/2,10:00:00,14,�k��,5.9,2.5,95.1,1,0.17,15,�k�k��,11,22,,
2020/4/2,11:00:00,14,�k��,5.3,3.7,92.5,1,0.24,14,�k��,10.1,10,,
2020/4/2,12:00:00,14,�k��,4.4,5.1,87.2,0,0.35,14,�k��,12.3,11,,
2020/4/2,13:00:00,15,�k�k��,4.1,6.7,75,0,0.35,14,�k��,10.2,8,,
2020/4/2,14:00:00,15,�k�k��,5.5,6.2,79.8,0,0.25,15,�k�k��,11.7,33,,
2020/4/2,15:00:00,16,�k,4.3,6,83.2,0.5,0.16,14,�k��,11.7,7,,
2020/4/2,16:00:00,16,�k,3.5,6.3,79.1,0,0.14,1,�k�k��,8.2,18,,
2020/4/2,17:00:00,16,�k,4.1,6.5,69.9,0,0.1,15,�k�k��,8,27,,
2020/4/2,18:00:00,15,�k�k��,3.1,5.9,59.7,0,0.03,16,�k,8.4,29,,
2020/4/2,19:00:00,15,�k�k��,2.1,4.9,58.6,0,0,16,�k,6.5,14,,
2020/4/2,20:00:00,15,�k�k��,2.5,5.1,54.1,0,0,14,�k��,4.7,48,,
2020/4/2,21:00:00,14,�k��,2.5,2.5,68.8,0,0,14,�k��,5.7,38,,
2020/4/2,22:00:00,14,�k��,3.7,3.6,57.1,0,0,14,�k��,5.6,56,,
2020/4/2,23:00:00,14,�k��,3.1,2.4,61.4,0,0,12,��,5.8,21,,
2020/4/2,0:00:00,12,��,2.5,-0.9,83.2,0,0,15,�k�k��,4.6,20,,
2020/4/3,1:00:00,11,���쐼,3,-0.7,83.9,0,0,11,���쐼,4.6,52,,
2020/4/3,2:00:00,12,��,1.6,-2.4,92.8,0,0,10,�쐼,2.9,0,,
2020/4/3,3:00:00,13,���k��,2.2,-2.4,92.8,0,0,14,�k��,3.1,58,,
2020/4/3,4:00:00,13,���k��,3.1,-1.8,83.6,0,0,13,���k��,3.9,51,,
2020/4/3,5:00:00,12,��,2,-3.8,92.6,0,0,14,�k��,3.8,0,,
2020/4/3,6:00:00,13,���k��,1.4,-2.3,90.9,0,0.07,13,���k��,3.4,40,,
2020/4/3,7:00:00,12,��,1.2,0.7,77.9,0,0.25,11,���쐼,2.9,5,,
2020/4/3,8:00:00,4.5,��,60.3,0,0.46,,,,,,,,
2020/4/3,9:00:00,2,�k��,1.8,8,64.3,0,0.63,4,��,3.1,43,,
2020/4/3,10:00:00,9,��쐼,2.1,10.5,49.7,0,0.78,9,��쐼,4.2,53,,
2020/4/3,11:00:00,9,��쐼,5.6,11.6,44.2,0,0.88,9,��쐼,9.6,57,,
2020/4/3,12:00:00,10,�쐼,5.3,12.4,43.2,0,0.92,9,��쐼,10,12,,
2020/4/3,13:00:00,11,���쐼,6.5,12.9,46.8,0,0.89,10,�쐼,11.7,50,,
2020/4/3,14:00:00,12,��,5.2,13.6,48.5,0,0.78,12,��,9.7,0,,
2020/4/3,15:00:00,12,��,6.4,12.4,48.8,0,0.62,13,���k��,12.4,58,,
2020/4/3,16:00:00,13,���k��,4.1,12.4,46.9,0,0.38,13,���k��,10.1,1,,
2020/4/3,17:00:00,13,���k��,4.9,10.4,50.7,0,0.21,13,���k��,8.1,48,,
2020/4/3,18:00:00,11,���쐼,3.1,7.8,56.1,0,0.05,12,��,7.2,12,,
2020/4/3,19:00:00,12,��,0.3,7.5,57.6,0,0,11,���쐼,5,27,,
2020/4/3,20:00:00,10,�쐼,3.5,7.1,63.3,0,0,10,�쐼,5,45,,
2020/4/3,21:00:00,9,��쐼,0.4,1.4,80.8,0,0,9,��쐼,3.8,2,,
2020/4/3,22:00:00,14,�k��,0.7,0.9,89.6,0,0,13,���k��,2.5,48,,
2020/4/3,23:00:00,14,�k��,1.5,-1.1,93,0,0,14,�k��,2.7,53,,
2020/4/3,0:00:00,14,�k��,0.5,-1,94.9,0,0,13,���k��,2.3,36,,
2020/4/4,1:00:00,2,�k��,3.3,2,88.4,0,0,2,�k��,4.7,56,,
2020/4/4,2:00:00,3,���k��,4.7,1.7,82.3,0,0,2,�k��,6.8,24,,
2020/4/4,3:00:00,3,���k��,4.9,1.4,79.8,0,0,3,���k��,6.6,55,,
2020/4/4,4:00:00,2,�k��,3.9,1,78.9,0,0,3,���k��,6.9,37,,
2020/4/4,5:00:00,2,�k��,2.5,0.8,78.1,0,0,3,���k��,5.5,6,,
2020/4/4,6:00:00,16,�k,1.6,1.3,75,0,0.05,2,�k��,4.3,1,,
2020/4/4,7:00:00,16,�k,2.5,3.2,65.7,0,0.22,1,�k�k��,4.1,50,,
2020/4/4,8:00:00,2,�k��,1.8,5.6,58.1,0,0.47,2,�k��,3.5,39,,
2020/4/4,9:00:00,4,��,4,5.6,56.7,0,0.65,4,��,5.9,59,,
2020/4/4,10:00:00,3,���k��,2.8,7,63.7,0,0.78,4,��,6.1,4,,
2020/4/4,11:00:00,4,��,5.1,5.7,63,0,0.64,4,��,7.9,57,,
2020/4/4,12:00:00,3,���k��,4.9,5.3,72.9,0,0.54,3,���k��,8.2,27,,
2020/4/4,13:00:00,3,���k��,3.2,5.5,78.3,0,0.37,3,���k��,7.3,10,,
2020/4/4,14:00:00,2,�k��,1.7,5.2,87.3,0,0.27,2,�k��,4.9,20,,
2020/4/4,15:00:00,3,���k��,2.5,5.5,92,0,0.28,3,���k��,4.1,30,,
2020/4/4,16:00:00,4,��,2.3,5.2,93.4,0,0.24,4,��,3.7,42,,
2020/4/4,17:00:00,3,���k��,2,5.2,95.4,0,0.06,3,���k��,3,2,,
2020/4/4,18:00:00,3,���k��,2,5,95.9,0,0.01,2,�k��,2.9,59,,
2020/4/4,19:00:00,3,���k��,1.4,4.9,96.1,0,0,3,���k��,3.8,21,,
2020/4/4,20:00:00,6,�쓌,0.8,5.6,97.4,0,0,6,�쓌,3.5,45,,
2020/4/4,21:00:00,7,��쓌,1.8,5.8,98.8,0,0,8,��,4.7,30,,
2020/4/4,22:00:00,6,�쓌,2.4,5.8,99.2,0,0,7,��쓌,3.9,52,,
2020/4/4,23:00:00,7,��쓌,1.9,5.6,99.5,0,0,6,�쓌,3.9,43,,
2020/4/4,0:00:00,8,��,2.7,5.6,99.8,0,0,8,��,7.2,21,,
2020/4/5,1:00:00,3,���k��,0.3,5.7,99.5,3.5,0,10,�쐼,6.1,20,,
2020/4/5,2:00:00,1,�k�k��,1,3.8,100,0,0,4,��,7.3,23,,
2020/4/5,3:00:00,5,���쓌,0.4,3.8,100,0,0,2,�k��,2.5,43,,
2020/4/5,4:00:00,15,�k�k��,0.8,3.5,100,0.5,0,5,���쓌,2.4,20,,
2020/4/5,5:00:00,12,��,1.2,3.2,100,0.5,0,13,���k��,4.4,31,,
2020/4/5,6:00:00,13,���k��,1.2,3.2,100,0,0.01,12,��,4.8,58,,
2020/4/5,7:00:00,16,�É�,0.1,4.6,100,0.5,0.04,12,��,3.6,9,,
2020/4/5,8:00:00,10,�쐼,1.1,5,98.4,0,0.07,13,���k��,3.9,39,,
2020/4/5,9:00:00,14,�k��,0.6,5.8,83.5,0,0.13,9,��쐼,3.4,19,,
2020/4/5,10:00:00,12,��,0.9,7.8,72.2,0,0.56,16,�k,2.8,47,,
2020/4/5,11:00:00,15,�k�k��,2.1,7.4,83.3,0,0.31,2,�k��,4.2,16,,
2020/4/5,12:00:00,5,���쓌,2.7,6.7,83.2,0,0.27,4,��,4.1,48,,
2020/4/5,13:00:00,5,���쓌,2,7.2,72.4,0,0.36,5,���쓌,3.8,0,,
2020/4/5,14:00:00,6,�쓌,2.8,5.9,80.8,0,0.33,5,���쓌,3.9,9,,
2020/4/5,15:00:00,6,�쓌,1.7,6.1,77.1,0,0.22,5,���쓌,4,12,,
2020/4/5,16:00:00,7,��쓌,1.8,5.5,82.6,0,0.15,7,��쓌,2.8,52,,
2020/4/5,17:00:00,7,��쓌,0.7,4.3,91.4,0,0.07,6,�쓌,3.2,7,,
2020/4/5,18:00:00,2,�k��,0.9,3.1,95.5,0,0.03,2,�k��,1.8,17,,
2020/4/5,19:00:00,15,�k�k��,0.4,0.9,97.7,0,0,3,���k��,6.9,11,,
2020/4/5,20:00:00,12,��,0.3,-0.6,100,0,0,13,���k��,1.6,15,,
2020/4/5,21:00:00,12,��,1,-1.4,100,0,0,12,��,2.5,1,,
2020/4/5,22:00:00,10,�쐼,2.4,2.9,83.7,0,0,11,���쐼,8.5,48,,
2020/4/5,23:00:00,10,�쐼,2.1,1.9,89.4,0,0,10,�쐼,3.1,55,,
2020/4/5,0:00:00,10,�쐼,2,0.7,93.3,0,0,9,��쐼,3.9,41,,
2020/4/6,1:00:00,12,��,0.7,-1.7,98.7,0,0,10,�쐼,3.2,4,,
2020/4/6,2:00:00,8,��,0.5,-3,90.9,0,0,9,��쐼,3.4,26,,
2020/4/6,3:00:00,9,��쐼,2.1,0.6,88.7,0,0,12,��,5.7,22,,
2020/4/6,4:00:00,10,�쐼,1.6,0.7,89.3,0,0,8,��,3.7,29,,
2020/4/6,5:00:00,10,�쐼,2.2,-1,90.4,0,0,10,�쐼,3.3,50,,
2020/4/6,6:00:00,14,�k��,2.2,0.4,87.9,0,0.08,15,�k�k��,3.5,53,,
2020/4/6,7:00:00,10,�쐼,2.2,3.3,73.6,0,0.31,10,�쐼,4.3,29,,
2020/4/6,8:00:00,9,��쐼,3.7,3.9,75.9,0,0.5,8,��,6.4,47,,
2020/4/6,9:00:00,8,��,4.2,4.6,71.7,0,0.68,8,��,6.9,23,,
2020/4/6,10:00:00,8,��,3.4,6.2,63.1,0,0.8,8,��,6.1,51,,
2020/4/6,11:00:00,7,��쓌,4.1,7,50.3,0,0.93,7,��쓌,6.5,59,,
2020/4/6,12:00:00,6,�쓌,4.6,7.2,46.9,0,0.97,7,��쓌,6.5,0,,
2020/4/6,13:00:00,5,���쓌,2.8,8.6,52.4,0,0.67,5,���쓌,6.8,8,,
2020/4/6,14:00:00,1,�k�k��,0.8,8.9,48.3,0,0.57,9,��쐼,4.2,16,,
2020/4/6,15:00:00,16,�k,4,5.8,66.1,0,0.67,11,���쐼,10.1,23,,
2020/4/6,16:00:00,12,��,6.1,7.7,51.4,0,0.44,12,��,11.7,46,,
2020/4/6,17:00:00,12,��,3.3,6.5,51.1,0,0.27,12,��,10.4,1,,
2020/4/6,18:00:00,10,�쐼,2.3,3.9,64.6,0,0.03,12,��,4.6,4,,
2020/4/6,19:00:00,11,���쐼,1.8,2.2,75.4,0,0,11,���쐼,3.8,7,,
2020/4/6,20:00:00,3,���k��,1,1.3,84.6,0,0,4,��,2.3,49,,
2020/4/6,21:00:00,14,�k��,1,-1.5,90.5,0,0,15,�k�k��,2.4,48,,
2020/4/6,22:00:00,13,���k��,2.2,-1.3,94.2,0,0,13,���k��,2.8,0,,
2020/4/6,23:00:00,14,�k��,2.2,-1.4,97.1,0,0,14,�k��,2.9,37,,
2020/4/6,0:00:00,13,���k��,2,-1.5,95,0,0,14,�k��,3.1,8,,
2020/4/7,1:00:00,12,��,2.3,-3,97,0,0,12,��,3.3,48,,
2020/4/7,2:00:00,13,���k��,1.3,-0.9,95.3,0,0,12,��,2.7,12,,
2020/4/7,3:00:00,13,���k��,0.8,-3.3,95.7,0,0,13,���k��,2.9,37,,
2020/4/7,4:00:00,12,��,1.7,-3.7,97.8,0,0,13,���k��,2.7,24,,
2020/4/7,5:00:00,14,�k��,0.9,-4.3,99.2,0,0.01,15,�k�k��,3.9,28,,
2020/4/7,6:00:00,12,��,2.3,-1.5,93.2,0,0.1,13,���k��,4.3,23,,
2020/4/7,7:00:00,12,��,1.1,2.4,78.2,0,0.3,12,��,3.6,15,,
2020/4/7,8:00:00,8,��,2.4,5.6,56.8,0,0.51,10,�쐼,7.4,21,,
2020/4/7,9:00:00,8,��,3.8,6.5,52.1,0,0.68,7,��쓌,5.8,55,,
2020/4/7,10:00:00,8,��,3,7.3,52.1,0,0.73,9,��쐼,5.6,17,,
2020/4/7,11:00:00,7,��쓌,3.9,8.5,48.5,0,0.89,7,��쓌,6.6,38,,
2020/4/7,12:00:00,8,��,2.8,9.4,50.1,0,0.53,7,��쓌,6.5,15,,
2020/4/7,13:00:00,9,��쐼,2.8,11.2,41.4,0,0.8,10,�쐼,5.4,58,,
2020/4/7,14:00:00,10,�쐼,2.2,11.5,46,0,0.33,13,���k��,6,59,,
2020/4/7,15:00:00,13,���k��,2.7,10.9,49.9,0,0.22,13,���k��,7,3,,
2020/4/7,16:00:00,12,��,5.7,10.1,52.5,0,0.33,12,��,8.6,54,,
2020/4/7,17:00:00,12,��,1.9,9.3,56.6,0,0.13,12,��,7.5,4,,
2020/4/7,18:00:00,14,�k��,1,7,67.2,0,0.04,12,��,2,10,,
2020/4/7,19:00:00,4,��,0.3,3.1,84.3,0,0,14,�k��,2.4,5,,
2020/4/7,20:00:00,13,���k��,0.8,1.1,85.4,0,0,12,��,2,5,,
2020/4/7,21:00:00,13,���k��,1.6,-1.2,93.8,0,0,13,���k��,2.2,56,,
2020/4/7,22:00:00,13,���k��,1.2,-2.2,95.6,0,0,13,���k��,3,33,,
2020/4/7,23:00:00,12,��,1.5,-2.6,97.6,0,0,12,��,2.1,37,,
2020/4/7,0:00:00,12,��,1.4,-3.8,97.6,0,0,13,���k��,2.3,57,,
2020/4/8,1:00:00,14,�k��,2.3,-1.9,98.4,0,0,12,��,3.1,40,,
2020/4/8,2:00:00,13,���k��,1.1,-3.4,98.3,0,0,3,���k��,3.3,34,,
2020/4/8,3:00:00,13,���k��,1.3,-3.1,98,0,0,13,���k��,3.7,34,,
2020/4/8,4:00:00,13,���k��,1.2,-3.5,96.3,0,0,13,���k��,3.8,11,,
2020/4/8,5:00:00,13,���k��,2.1,-4.4,97.6,0,0.01,13,���k��,3.3,49,,
2020/4/8,6:00:00,13,���k��,1.3,-1.2,98.3,0,0.07,13,���k��,2.5,59,,
2020/4/8,7:00:00,13,���k��,0.5,3.1,84.9,0,0.3,13,���k��,3.3,4,,
2020/4/8,8:00:00,4,��,0.8,7.7,67.7,0,0.4,4,��,8.3,38,,
2020/4/8,9:00:00,7,��쓌,2.6,6.6,63.7,0,0.63,7,��쓌,4.1,54,,
2020/4/8,10:00:00,6,�쓌,2.3,7.3,59.5,0,0.78,6,�쓌,5.2,8,,
2020/4/8,11:00:00,5,���쓌,4.6,8.2,53.1,0,0.88,4,��,6.3,44,,
2020/4/8,12:00:00,4,��,4.4,8.9,54.1,0,0.93,4,��,6.8,58,,
2020/4/8,13:00:00,5,���쓌,3.8,7.9,55.4,0,0.89,4,��,7,46,,
2020/4/8,14:00:00,4,��,4,8.4,66.2,0,0.78,4,��,6.3,5,,
2020/4/8,15:00:00,4,��,4.7,7.6,72.8,0,0.63,5,���쓌,6.8,11,,
2020/4/8,16:00:00,4,��,4.3,7,78.2,0,0.42,4,��,6.4,2,,
2020/4/8,17:00:00,3,���k��,5.2,5.2,86,0,0.2,3,���k��,7.5,53,,
2020/4/8,18:00:00,3,���k��,3.7,4.7,91.9,0,0.03,3,���k��,7.4,10,,
2020/4/8,19:00:00,4,��,4.3,4.5,91.1,0,0,4,��,7.4,27,,
2020/4/8,20:00:00,1,�k�k��,3,3.5,91.7,0,0,2,�k��,6.3,31,,
2020/4/8,21:00:00,3,���k��,4.5,3.6,85.6,0,0,4,��,6.8,53,,
2020/4/8,22:00:00,4,��,5.7,3,86.1,0,0,3,���k��,9,36,,
2020/4/8,23:00:00,3,���k��,5.1,2.5,87,0,0,3,���k��,10,47,,
2020/4/8,0:00:00,3,���k��,4.3,2,87.5,0,0,3,���k��,7.5,14,,
2020/4/9,1:00:00,3,���k��,5.6,1.5,87.3,0,0,3,���k��,8.7,58,,
2020/4/9,2:00:00,3,���k��,5,1.3,88.3,0,0,3,���k��,10,2,,
2020/4/9,3:00:00,2,�k��,2.8,0.4,98.3,0,0,2,�k��,7,1,,
2020/4/9,4:00:00,1,�k�k��,2.3,0.3,99.7,0.5,0,2,�k��,4.4,4,,
2020/4/9,5:00:00,1,�k�k��,1.6,-0.1,100,0,0,2,�k��,3.8,7,,
2020/4/9,6:00:00,16,�k,1.6,-0.2,100,0,0.01,16,�k,2.7,43,,
2020/4/9,7:00:00,15,�k�k��,1,-0.3,100,0,0.02,15,�k�k��,3.2,13,,
2020/4/9,8:00:00,16,�k,1.6,-0.3,100,0.5,0.04,15,�k�k��,3.6,28,,
2020/4/9,9:00:00,1,�k�k��,2.4,-0.2,99.1,1,0.11,1,�k�k��,4.1,40,,
2020/4/9,10:00:00,16,�k,2.1,-0.1,98.7,0.5,0.17,16,�k,4.1,25,,
2020/4/9,11:00:00,1,�k�k��,1.8,0.3,98.6,1.5,0.2,1,�k�k��,4.4,15,,
2020/4/9,12:00:00,1,�k�k��,0.9,0.6,96.8,3.5,0.27,2,�k��,3.6,39,,
2020/4/9,13:00:00,2,�k��,1.2,1.3,96.2,2.5,0.4,2,�k��,2.6,14,,
2020/4/9,14:00:00,2,�k��,1.3,2.6,90,5,0.75,2,�k��,2.1,51,,
2020/4/9,15:00:00,3,���k��,2.4,2.2,88.2,1.5,0.44,3,���k��,3.2,59,,
2020/4/9,16:00:00,3,���k��,1.7,1.5,93.2,0,0.27,4,��,4.3,22,,
2020/4/9,17:00:00,4,��,2.4,1.2,94.1,0,0.12,4,��,3.7,53,,
2020/4/9,18:00:00,4,��,1.7,0.9,95.3,0,0.03,4,��,2.9,37,,
2020/4/9,19:00:00,4,��,1.1,0.8,95.4,0,0,4,��,2.7,16,,
2020/4/9,20:00:00,6,�쓌,1.2,0.8,94.6,0,0,5,���쓌,2.3,40,,
2020/4/9,21:00:00,5,���쓌,1,0.8,95,0,0,5,���쓌,2.4,37,,
2020/4/9,22:00:00,9,��쐼,0.8,0.9,91.2,0,0,7,��쓌,2.1,46,,
2020/4/9,23:00:00,16,�É�,0.1,0.7,93,0,0,12,��,2.9,49,,
2020/4/9,0:00:00,2,�k��,0.8,0.8,92.5,0,0,2,�k��,1.8,55,,
2020/4/10,1:00:00,1,�k�k��,1.7,0.4,93.7,0,0,1,�k�k��,2.5,52,,
2020/4/10,2:00:00,10,�쐼,1.9,0.6,92.8,0,0,10,�쐼,2.8,55,,
2020/4/10,3:00:00,12,��,1.6,0.5,93.7,0,0,12,��,2.5,14,,
2020/4/10,4:00:00,9,��쐼,0.8,0.2,92.9,0,0,9,��쐼,2.7,36,,
2020/4/10,5:00:00,11,���쐼,0.7,0.3,93.1,0,0,11,���쐼,1.8,16,,
2020/4/10,6:00:00,10,�쐼,1.3,0.4,92.7,0,0.04,12,��,3.3,16,,
2020/4/10,7:00:00,2,�k��,0.7,1.5,86.8,0,0.12,8,��,3.7,36,,
2020/4/10,8:00:00,3,���k��,1.5,1.7,85.6,0,0.23,3,���k��,2.4,49,,
2020/4/10,9:00:00,1,�k�k��,0.4,2.7,83.4,0,0.32,1,�k�k��,2.5,57,,
2020/4/10,10:00:00,2,�k��,78,0,0.48,,,,,,,,
2020/4/10,11:00:00,5,���쓌,1.6,4.4,78.9,0,0.72,6,�쓌,2.8,46,,
2020/4/10,12:00:00,7,��쓌,2.4,2.6,72.3,0,0.94,7,��쓌,4.5,44,,
2020/4/10,13:00:00,8,��,2.6,2.6,71,0,0.94,8,��,5.1,36,,
2020/4/10,14:00:00,7,��쓌,3.4,2.5,77.1,0,0.83,6,�쓌,6.6,46,,
2020/4/10,15:00:00,6,�쓌,3.1,2.8,79.8,0,0.64,7,��쓌,5.1,2,,
2020/4/10,16:00:00,5,���쓌,2.6,2.4,82.2,0,0.43,5,���쓌,4.4,31,,
2020/4/10,17:00:00,2,�k��,1.6,2,87,0,0.12,6,�쓌,3,14,,
2020/4/10,18:00:00,8,��,0.7,1.3,91.7,0,0.03,3,���k��,2.5,1,,
2020/4/10,19:00:00,2,�k��,1.8,0.9,96.7,0,0,1,�k�k��,2.4,52,,
2020/4/10,20:00:00,11,���쐼,0.9,0.6,98.4,0.5,0,1,�k�k��,2.6,25,,
2020/4/10,21:00:00,10,�쐼,2,0.9,98.7,0,0,10,�쐼,3,36,,
2020/4/10,22:00:00,11,���쐼,2.4,0.9,96.5,0,0,11,���쐼,3.8,15,,
2020/4/10,23:00:00,11,���쐼,1.2,1,95.3,0,0,11,���쐼,3.1,5,,
2020/4/10,0:00:00,12,��,1.1,0.2,97.5,0,0,11,���쐼,2.3,2,,
2020/4/11,1:00:00,12,��,0.9,-3.5,100,0,0,10,�쐼,4,15,,
2020/4/11,2:00:00,11,���쐼,1.4,-3.5,100,0,0,11,���쐼,2.1,52,,
2020/4/11,3:00:00,11,���쐼,0.4,-3.3,100,0,0,10,�쐼,3.1,56,,
2020/4/11,4:00:00,11,���쐼,1.4,-4.8,99.6,0,0,11,���쐼,2.1,41,,
2020/4/11,5:00:00,11,���쐼,1.2,-6.9,97.3,0,0.01,10,�쐼,1.8,0,,
2020/4/11,6:00:00,15,�k�k��,0.7,-3.5,100,0,0.1,12,��,2.5,15,,
2020/4/11,7:00:00,13,���k��,2.2,-1.3,100,0,0.32,12,��,3.2,39,,
2020/4/11,8:00:00,12,��,0.5,1.7,78.7,0,0.51,13,���k��,4.2,6,,
2020/4/11,9:00:00,4,��,3,3.1,79.5,0,0.71,5,���쓌,4.1,43,,
2020/4/11,10:00:00,5,���쓌,3.1,3,76,0,0.85,5,���쓌,5.2,38,,
2020/4/11,11:00:00,6,�쓌,3.4,3.1,72.3,0,0.97,6,�쓌,5.9,57,,
2020/4/11,12:00:00,7,��쓌,4.3,3.3,72.3,0,0.98,6,�쓌,6.6,49,,
2020/4/11,13:00:00,7,��쓌,4,3.9,72.2,0,0.94,6,�쓌,6.9,47,,
2020/4/11,14:00:00,7,��쓌,3.3,3.6,76.4,0,0.78,8,��,6.4,17,,
2020/4/11,15:00:00,6,�쓌,2.5,3.1,78.7,0,0.41,6,�쓌,6.4,6,,
2020/4/11,16:00:00,4,��,3.2,2.9,81.8,0,0.15,4,��,4.8,0,,
2020/4/11,17:00:00,3,���k��,4,0.9,97,0,0.07,3,���k��,6.8,30,,
2020/4/11,18:00:00,3,���k��,3.2,0.4,98,0,0.01,3,���k��,6.3,15,,
2020/4/11,19:00:00,3,���k��,2.8,0.5,96.6,0,0,2,�k��,5,34,,
2020/4/11,20:00:00,3,���k��,2,0.6,95.8,0,0,3,���k��,4.2,17,,
2020/4/11,21:00:00,3,���k��,1.5,0.7,94.4,0,0,3,���k��,3.1,7,,
2020/4/11,22:00:00,3,���k��,1.4,0.4,94,0,0,3,���k��,3.3,37,,
2020/4/11,23:00:00,3,���k��,0.8,-0.2,98.4,0,0,4,��,2.9,1,,
2020/4/11,0:00:00,3,���k��,0.4,-0.3,93.8,0.5,0,2,�k��,2.5,8,,
2020/4/12,1:00:00,3,���k��,0.6,-0.7,95.4,0,0,3,���k��,18,47,,
2020/4/12,2:00:00,16,�É�,0,-0.8,98.1,0,0,3,���k��,1.7,50,,
2020/4/12,3:00:00,12,��,0.4,-1.2,99.9,0,0,12,��,4.3,34,,
2020/4/12,4:00:00,13,���k��,0.9,-2.4,100,0,0,13,���k��,1.2,58,,
2020/4/12,5:00:00,14,�k��,0.6,-3,100,0,0,11,���쐼,1.2,11,,
2020/4/12,6:00:00,13,���k��,0.7,-1.3,100,0,0.02,13,���k��,1.2,54,,
2020/4/12,7:00:00,13,���k��,1,-0.6,96,0,0.08,14,�k��,2.1,15,,
2020/4/12,8:00:00,1,�k�k��,0.5,1,86.8,0,0.24,11,���쐼,4.4,29,,
2020/4/12,9:00:00,2.1,�k��,84.1,0,0.38,,,,,,,,
2020/4/12,10:00:00,2.5,�k��,78.9,0,0.46,,,,,,,,
2020/4/12,11:00:00,6,�쓌,2.5,2.8,75.8,0,0.46,6,�쓌,4.1,32,,
2020/4/12,12:00:00,8,��,3.9,3.3,73.7,0,0.63,8,��,6,57,,
2020/4/12,13:00:00,7,��쓌,3.8,3.5,66.7,0,0.69,7,��쓌,6.9,24,,
2020/4/12,14:00:00,7,��쓌,3.7,3.4,66.7,0,0.73,7,��쓌,6.3,12,,
2020/4/12,15:00:00,8,��,4.8,2.7,70.9,0.5,0.69,8,��,8.4,50,,
2020/4/12,16:00:00,8,��,3.7,2.6,73.3,0,0.51,8,��,7.6,28,,
2020/4/12,17:00:00,8,��,3,2.5,79.2,0,0.29,8,��,7.1,27,,
2020/4/12,18:00:00,9,��쐼,2.3,1.8,85.5,0,0.06,9,��쐼,5,20,,
2020/4/12,19:00:00,8,��,2.1,1.5,87.4,0,0,8,��,4.4,17,,
2020/4/12,20:00:00,6,�쓌,2.2,1.9,87,0,0,6,�쓌,4.8,47,,
2020/4/12,21:00:00,5,���쓌,1.9,1.7,86.9,0,0,5,���쓌,4.5,28,,
2020/4/12,22:00:00,6,�쓌,1.6,1.8,87.9,0,0,6,�쓌,4.1,0,,
2020/4/12,23:00:00,16,�É�,0.1,1.2,89.3,0,0,7,��쓌,3.3,1,,
2020/4/12,0:00:00,13,���k��,0.8,-1.8,97.8,0,0,1,�k�k��,9,2,,
2020/4/13,1:00:00,14,�k��,2,-0.3,94.3,0,0,14,�k��,2.9,33,,
2020/4/13,2:00:00,13,���k��,2.2,-0.9,97.9,0,0,14,�k��,3,49,,
2020/4/13,3:00:00,13,���k��,1,-2,98.9,0,0,14,�k��,2.9,16,,
2020/4/13,4:00:00,14,�k��,0.8,-3,99.2,0,0,14,�k��,1.9,41,,
2020/4/13,5:00:00,14,�k��,2.2,-0.7,98.8,0,0.01,14,�k��,3.3,49,,
2020/4/13,6:00:00,13,���k��,1.7,-0.2,96.9,0,0.03,14,�k��,2.8,59,,
2020/4/13,7:00:00,13,���k��,1.2,1.6,90.8,0,0.13,14,�k��,3.2,1,,
2020/4/13,8:00:00,13,���k��,1.1,3.2,84.4,0,0.19,1,�k�k��,2.3,58,,
2020/4/13,9:00:00,5,���쓌,1.6,4.7,66.8,0,0.44,4,��,4.2,47,,
2020/4/13,10:00:00,4,��,3.7,4.9,60,0,0.5,4,��,5.5,50,,
2020/4/13,11:00:00,4,��,4.6,6.1,62.5,0,0.87,6,�쓌,6.8,47,,
2020/4/13,12:00:00,4,��,6.5,5.4,69.9,0,0.71,5,���쓌,8.7,36,,
2020/4/13,13:00:00,4,��,5.5,5.2,64.9,0,0.82,4,��,8.3,3,,
2020/4/13,14:00:00,4,��,5.2,4.8,70.6,0,0.84,5,���쓌,7.8,11,,
2020/4/13,15:00:00,4,��,4.7,3.2,75.1,0,0.54,4,��,7.4,14,,
2020/4/13,16:00:00,4,��,5,2.4,77.9,0,0.25,4,��,7.4,59,,
2020/4/13,17:00:00,4,��,4,2,79.7,0,0.11,5,���쓌,7.4,9,,
2020/4/13,18:00:00,4,��,4.1,1.6,81.5,0,0.02,4,��,6.5,23,,
2020/4/13,19:00:00,3,���k��,2.7,1.4,82.2,0,0,4,��,6.1,27,,
2020/4/13,20:00:00,2,�k��,5.7,1,84.6,0,0,3,���k��,8.9,55,,
2020/4/13,21:00:00,3,���k��,4.7,0.4,79.1,0,0,3,���k��,8.9,12,,
2020/4/13,22:00:00,2,�k��,2.1,0.2,82.8,0,0,3,���k��,7.8,2,,
2020/4/13,23:00:00,15,�k�k��,1.6,0.2,82.1,0,0,1,�k�k��,3.2,3,,
2020/4/13,0:00:00,16,�k,1.6,0.3,80.5,0,0,16,�k,4.3,7,,
2020/4/14,1:00:00,1,�k�k��,2.4,-0.1,78.8,0,0,1,�k�k��,4.1,21,,
2020/4/14,2:00:00,1,�k�k��,1.6,-0.3,79.4,0,0,1,�k�k��,3.4,13,,
2020/4/14,3:00:00,2,�k��,3.2,-0.4,78,0,0,3,���k��,5.9,36,,
2020/4/14,4:00:00,2,�k��,4,-0.6,76.2,0,0,2,�k��,7.4,21,,
2020/4/14,5:00:00,2,�k��,3.8,-0.8,75.6,0,0,2,�k��,7.3,15,,
2020/4/14,6:00:00,1,�k�k��,2.6,-0.6,75.8,0,0.02,1,�k�k��,5.2,10,,
2020/4/14,7:00:00,2,�k��,0.8,0.6,72.8,0,0.1,16,�k,3.9,2,,
2020/4/14,8:00:00,1,�k�k��,4.7,2.8,59,0,0.27,16,�k,10,38,,
2020/4/14,9:00:00,4,��,6.1,3.9,50.2,0,0.49,16,�k,10.8,23,,
2020/4/14,10:00:00,1,�k�k��,5.3,5.4,42.4,0,0.76,1,�k�k��,11.8,11,,
2020/4/14,11:00:00,15,�k�k��,4.5,5.8,46,0,0.95,1,�k�k��,11.6,39,,
2020/4/14,12:00:00,4,��,2.5,4.5,53.4,0,0.91,1,�k�k��,8.3,14,,
2020/4/14,13:00:00,1,�k�k��,3.3,7.9,46.2,0,0.86,2,�k��,7.5,23,,
2020/4/14,14:00:00,4,��,4.1,7.2,52.9,0,0.85,4,��,8.9,12,,
2020/4/14,15:00:00,4,��,5.9,5.1,63.2,0,0.71,4,��,8.1,30,,
2020/4/14,16:00:00,4,��,4.1,4.2,64.1,0,0.52,4,��,7,0,,
2020/4/14,17:00:00,5,���쓌,2.6,3.2,66.9,0,0.29,4,��,5.2,16,,
2020/4/14,18:00:00,0.3,�k,76.6,0,0.09,,,,,,,,
2020/4/14,19:00:00,12,��,1.7,-1.9,87.7,0,0.01,12,��,2.6,47,,
2020/4/14,20:00:00,15,�k�k��,2,0.4,75.6,0,0,15,�k�k��,4,54,,
2020/4/14,21:00:00,1,�k�k��,2.5,-0.7,68.8,0,0,1,�k�k��,5.9,28,,
2020/4/14,22:00:00,14,�k��,1.6,-0.8,69.3,0,0,1,�k�k��,4.1,2,,
2020/4/14,23:00:00,15,�k�k��,0.9,-1.8,71.5,0,0,1,�k�k��,4.8,42,,
2020/4/14,0:00:00,11,���쐼,1.4,-6.2,87.6,0,0,12,��,2.1,59,,
2020/4/15,1:00:00,13,���k��,1.7,-3.6,89.7,0,0,12,��,2.1,57,,
2020/4/15,2:00:00,13,���k��,1.6,-3.2,90,0,0,13,���k��,3.3,30,,
2020/4/15,3:00:00,13,���k��,2.1,-4.2,90.6,0,0,13,���k��,3.4,22,,
2020/4/15,4:00:00,14,�k��,2.2,-2.7,86.2,0,0,13,���k��,3.9,59,,
2020/4/15,5:00:00,14,�k��,2.1,-2,84.7,0,0,13,���k��,4.2,40,,
2020/4/15,6:00:00,13,���k��,1.5,-1,81,0,0.05,14,�k��,3.3,15,,
2020/4/15,7:00:00,14,�k��,1.4,-0.1,76.2,0,0.11,14,�k��,3.3,9,,
2020/4/15,8:00:00,14,�k��,2,0.7,72.9,0,0.12,14,�k��,3.5,50,,
2020/4/15,9:00:00,1,�k�k��,2.7,3.7,60.6,0,0.5,3,���k��,5.2,59,,
2020/4/15,10:00:00,11,���쐼,1.3,4,62.6,0,0.65,2,�k��,6.3,3,,
2020/4/15,11:00:00,5,���쓌,4.6,3.4,58.5,0,0.68,5,���쓌,7.3,51,,
2020/4/15,12:00:00,5,���쓌,5.2,2.1,61.3,0,0.5,5,���쓌,7.3,55,,
2020/4/15,13:00:00,6,�쓌,3.7,2.1,67.4,0,0.35,5,���쓌,6.9,0,,
2020/4/15,14:00:00,7,��쓌,3.4,2.5,69,0,0.38,8,��,5.2,55,,
2020/4/15,15:00:00,7,��쓌,3.1,2.6,73.1,0,0.4,7,��쓌,6.8,47,,
2020/4/15,16:00:00,6,�쓌,2.4,2.2,76,0,0.19,6,�쓌,6.5,3,,
2020/4/15,17:00:00,8,��,1.6,1.6,81.8,0,0.1,6,�쓌,3.7,28,,
2020/4/15,18:00:00,16,�É�,0.1,1,89.2,0,0.03,13,���k��,3,58,,
2020/4/15,19:00:00,11,���쐼,0.8,0.3,98.9,0,0,16,�k,1.6,38,,
2020/4/15,20:00:00,10,�쐼,1.9,-0.1,99.4,0,0,10,�쐼,2.5,59,,
2020/4/15,21:00:00,10,�쐼,2.5,0.2,98.7,0,0,10,�쐼,4.2,43,,
2020/4/15,22:00:00,10,�쐼,2.5,-0.2,97.7,0,0,10,�쐼,4,1,,
2020/4/15,23:00:00,10,�쐼,1.7,-0.1,96.1,0,0,10,�쐼,3.3,21,,
2020/4/15,0:00:00,12,��,0.8,-0.5,86.3,0,0,16,�k,3.2,21,,
2020/4/16,1:00:00,10,�쐼,1.6,-3.3,90.2,0,0,16,�k,2.9,13,,
2020/4/16,2:00:00,1,�k�k��,2,-1.4,90.5,0,0,16,�k,2.6,55,,
2020/4/16,3:00:00,10,�쐼,1.6,-1.5,89.8,0,0,10,�쐼,3,35,,
2020/4/16,4:00:00,9,��쐼,1.3,-1.7,89.2,0,0,9,��쐼,1.9,0,,
2020/4/16,5:00:00,10,�쐼,1.5,-1.9,91.5,0,0.01,10,�쐼,2.8,39,,
2020/4/16,6:00:00,11,���쐼,0.9,-0.6,85.3,0,0.04,11,���쐼,1.9,40,,
2020/4/16,7:00:00,10,�쐼,1.1,0.5,81.4,0,0.16,11,���쐼,2.3,24,,
2020/4/16,8:00:00,13,���k��,1.3,2.7,70.8,0,0.54,14,�k��,3.5,48,,
2020/4/16,9:00:00,14,�k��,1.6,3.4,67,0,0.53,14,�k��,6,30,,
2020/4/16,10:00:00,6,�쓌,3.2,3.7,63.8,0,0.35,6,�쓌,4.9,55,,
2020/4/16,11:00:00,6,�쓌,4,5.4,54.7,0,0.88,6,�쓌,6.7,45,,
2020/4/16,12:00:00,7,��쓌,3.9,4,58.2,0,0.69,5,���쓌,7,8,,
2020/4/16,13:00:00,8,��,5.5,3.8,66.2,0,0.47,8,��,8.7,33,,
2020/4/16,14:00:00,7,��쓌,4.1,5.9,60.2,0,0.72,7,��쓌,8,7,,
2020/4/16,15:00:00,7,��쓌,4.3,5.1,74.7,0,0.69,7,��쓌,7.2,50,,
2020/4/16,16:00:00,6,�쓌,3.5,4.3,73.1,0,0.54,7,��쓌,7.2,4,,
2020/4/16,17:00:00,5,���쓌,4.3,3.7,75.9,0,0.35,5,���쓌,7,44,,
2020/4/16,18:00:00,6,�쓌,2.5,1.6,80.5,0,0.11,6,�쓌,5.7,11,,
2020/4/16,19:00:00,4,��,0.9,0.8,85.9,0,0.01,4,��,4,8,,
2020/4/16,20:00:00,1,�k�k��,1.1,-2.5,96.2,0,0,1,�k�k��,2.2,40,,
2020/4/16,21:00:00,13,���k��,1.4,-5,95.4,0,0,13,���k��,2.1,59,,
2020/4/16,22:00:00,13,���k��,1.5,-3.8,96.8,0,0,13,���k��,2.8,39,,
2020/4/16,23:00:00,14,�k��,2.1,-3.7,97.8,0,0,14,�k��,3.2,34,,
2020/4/16,0:00:00,14,�k��,0.8,-4.7,98.1,0,0,14,�k��,2.2,0,,
2020/4/17,1:00:00,14,�k��,1.6,-4.4,98.9,0,0,14,�k��,2.2,59,,
2020/4/17,2:00:00,13,���k��,0.9,-5,98.4,0,0,14,�k��,3.4,29,,
2020/4/17,3:00:00,12,��,2.6,-4.9,98.6,0,0,13,���k��,3.1,59,,
2020/4/17,4:00:00,13,���k��,1.9,-6.5,97.9,0,0,13,���k��,3.3,4,,
2020/4/17,5:00:00,13,���k��,1.7,-5.6,98.3,0,0.01,13,���k��,2.8,6,,
2020/4/17,6:00:00,13,���k��,1.7,-2.4,96.8,0,0.14,13,���k��,3,8,,
2020/4/17,7:00:00,12,��,0.6,1.9,72.9,0,0.37,12,��,3.3,53,,
2020/4/17,8:00:00,9,��쐼,1.6,5.3,60.5,0,0.57,14,�k��,7.3,17,,
2020/4/17,9:00:00,7,��쓌,2.9,7.1,51.6,0,0.75,9,��쐼,5.7,41,,
2020/4/17,10:00:00,8,��,4.1,6.8,50.9,0,0.89,7,��쓌,6.9,42,,
2020/4/17,11:00:00,8,��,4.9,6.9,51,0,0.99,8,��,8,54,,